Kingsville NAS, TX

5:36 PM CDT on June 28, 2017 (GMT -0500)
Kingsville Naval Air Station

Weather History for KNQI - October, 2013

Change the Weather History Date:

Wednesday, October 16, 2013

  Actual Average Record
Temperature  
Mean Temperature 76 °F -  
Max Temperature 88 °F 81 °F 93 °F (2006)
Min Temperature 66 °F 62 °F 50 °F (2001)
Cooling Degree Days 12    
Growing Degree Days 26 (Base 50)    
Moisture  
Dew Point 68 °F    
Average Humidity 77    
Maximum Humidity 97    
Minimum Humidity 57    
Precipitation  
Precipitation 0.00 in - - ()
Sea Level Pressure  
Sea Level Pressure 29.94 in    
Wind  
Wind Speed 6 mph (North)    
Max Wind Speed 16 mph    
Max Gust Speed 21 mph    
Visibility 10 miles    
Events      
Averages and records for this station are not official NWS values.
T = Trace of Precipitation, MM = Missing Value Source: NWS Daily Summary

Daily Weather History Graph

Daily Weather History Graph

Search for Another Location

Airport or City:

Trip Planner

Search our weather history database for the weather conditions in past years. The results will help you decide how hot, cold, wet, or windy it might be!

Date:

Astronomy

Oct. 16, 2013 Rise Set
Actual Time 7:32 AM CDT 7:01 PM CDT
Civil Twilight 7:08 AM CDT 7:24 PM CDT
Nautical Twilight 6:41 AM CDT 7:51 PM CDT
Astronomical Twilight 6:14 AM CDT 8:18 PM CDT
Moon 5:33 PM CDT (10/16) 5:12 AM CDT (10/16)
Length of Visible Light 12h 16m
Length of Day
11h 29m
Waxing Gibbous, 94% of the Moon is Illuminated
Oct 16
Waxing Gibbous
Oct 18
Full
Oct 26
Last Quarter
Nov 3
New
Nov 9
First Quarter

Hourly Weather History & Observations

Time (CDT) Temp. Heat Index Dew Point Humidity Pressure Visibility Wind Dir Wind Speed Gust Speed Precip Events Conditions
12:56 AM 75.9 °F - 73.0 °F 91% 29.89 in 10.0 mi SE 3.5 mph - N/A   Mostly Cloudy
1:56 AM 77.0 °F - 73.9 °F 90% 29.89 in 10.0 mi Calm Calm - N/A   Overcast
2:56 AM 77.0 °F - 73.9 °F 90% 29.88 in 10.0 mi Calm Calm - N/A   Mostly Cloudy
3:56 AM 75.0 °F - 73.0 °F 94% 29.88 in 10.0 mi Calm Calm - N/A   Clear
4:56 AM 73.9 °F - 73.0 °F 97% 29.88 in 10.0 mi Calm Calm - N/A   Clear
5:56 AM 73.0 °F - 71.1 °F 93% 29.89 in 10.0 mi Calm Calm - N/A   Clear
6:56 AM 71.1 °F - 70.0 °F 96% 29.90 in 10.0 mi Calm Calm - N/A   Scattered Clouds
7:56 AM 71.1 °F - 70.0 °F 96% 29.91 in 10.0 mi SSE 4.6 mph - N/A   Scattered Clouds
8:56 AM 79.0 °F - 75.9 °F 90% 29.93 in 10.0 mi SSW 9.2 mph - N/A   Scattered Clouds
9:56 AM 84.0 °F 91.9 °F 75.0 °F 74% 29.94 in 10.0 mi SSW 11.5 mph - N/A   Scattered Clouds
10:16 AM 84.0 °F 91.9 °F 75.0 °F 74% 29.96 in 10.0 mi SW 9.2 mph - N/A   Mostly Cloudy
10:40 AM 75.9 °F - 66.9 °F 74% 29.97 in 10.0 mi North 13.8 mph - N/A   Mostly Cloudy
10:56 AM 75.0 °F - 66.9 °F 76% 29.96 in 10.0 mi North 13.8 mph - N/A   Mostly Cloudy
11:21 AM 79.0 °F - 68.0 °F 69% 29.97 in 10.0 mi North 13.8 mph - N/A   Mostly Cloudy
11:56 AM 81.0 °F 83.8 °F 68.0 °F 65% 29.96 in 10.0 mi North 15.0 mph - N/A   Mostly Cloudy
12:56 PM 82.0 °F 85.5 °F 69.1 °F 65% 29.94 in 10.0 mi North 11.5 mph - N/A   Mostly Cloudy
1:22 PM 82.9 °F 86.5 °F 69.1 °F 63% 29.94 in 10.0 mi North 8.1 mph - N/A   Mostly Cloudy
1:56 PM 84.0 °F 88.4 °F 70.0 °F 63% 29.92 in 10.0 mi North 9.2 mph - N/A   Mostly Cloudy
2:56 PM 87.1 °F 92.0 °F 70.0 °F 57% 29.90 in 10.0 mi North 8.1 mph - N/A   Mostly Cloudy
3:56 PM 84.0 °F 87.8 °F 69.1 °F 61% 29.90 in 10.0 mi North 10.4 mph - N/A   Overcast
4:56 PM 82.0 °F 84.5 °F 66.9 °F 60% 29.90 in 10.0 mi North 13.8 mph - N/A   Mostly Cloudy
5:56 PM 79.0 °F - 64.9 °F 62% 29.92 in 10.0 mi NNW 16.1 mph - N/A   Mostly Cloudy
6:12 PM 75.9 °F - 64.0 °F 67% 29.93 in 10.0 mi North 15.0 mph 20.7 mph N/A   Mostly Cloudy
6:56 PM 72.0 °F - 63.0 °F 73% 29.95 in 10.0 mi North 13.8 mph - N/A   Mostly Cloudy
7:56 PM 69.1 °F - 61.0 °F 75% 29.96 in 10.0 mi NNW 13.8 mph - N/A   Mostly Cloudy
8:56 PM 68.0 °F - 61.0 °F 78% 29.99 in 10.0 mi North 9.2 mph - N/A   Mostly Cloudy
9:56 PM 68.0 °F - 61.0 °F 78% 30.02 in 10.0 mi NNW 10.4 mph - N/A   Overcast
10:56 PM 66.9 °F - 61.0 °F 81% 30.03 in 10.0 mi North 12.7 mph - N/A   Overcast
11:56 PM 66.0 °F - 61.0 °F 84% 30.04 in 10.0 mi North 10.4 mph - N/A   Overcast